Madison, MN

5:36 PM CST on November 11, 2019 (GMT -0600)
Madison-Lac Qui Parle County

Weather History for KDXX - October, 2019

Change the Weather History Date:

Tuesday, October 22, 2019

  Actual Average (KAQP) Record (KAQP)
Temperature  
Mean Temperature 42 °F -  
Max Temperature 51 °F 52 °F 71 °F (1998)
Min Temperature 32 °F 33 °F 17 °F (1997)
Degree Days  
Heating Degree Days 24    
Moisture  
Dew Point 33 °F    
Average Humidity 69    
Maximum Humidity 93    
Minimum Humidity 40    
Precipitation  
Precipitation 0.00 in - - ()
Sea Level Pressure  
Sea Level Pressure 29.67 in    
Wind  
Wind Speed 23 mph (WNW)    
Max Wind Speed 36 mph    
Max Gust Speed 46 mph    
Visibility 10 miles    
Events Rain    
Averages and records for this station are not official NWS values.
T = Trace of Precipitation, MM = Missing Value Source: NWS Daily Summary

Daily Weather History Graph

Daily Weather History Graph

Search for Another Location

Airport or City:

Astronomy

Oct. 22, 2019 Rise Set
Actual Time 7:49 AM CDT 6:28 PM CDT
Civil Twilight 7:19 AM CDT 6:58 PM CDT
Nautical Twilight 6:45 AM CDT 7:32 PM CDT
Astronomical Twilight 6:11 AM CDT 8:06 PM CDT
Moon 12:38 AM CDT (10/22) 3:58 PM CDT (10/22)
Length of Visible Light 11h 38m
Length of Day
10h 38m
Last Quarter, 37% of the Moon is Illuminated
Oct 22
Last Quarter
Oct 27
New
Nov 4
First Quarter
Nov 12
Full
Nov 19
Last Quarter

Hourly Weather History & Observations

Time (CDT) Temp. Windchill Dew Point Humidity Pressure Visibility Wind Dir Wind Speed Gust Speed Precip Events Conditions
12:15 AM 42.8 °F 32.5 °F 41.0 °F 93% 29.52 in 10.0 mi NW 28.8 mph 38.0 mph N/A Rain Light Rain
12:16 AM 42.8 °F 32.9 °F 41.0 °F 93% 29.52 in 10.0 mi NW 26.5 mph 38.0 mph 0.01 in Rain Light Rain
12:35 AM 42.8 °F 33.5 °F 41.0 °F 93% 29.53 in 10.0 mi NW 23.0 mph 42.6 mph 0.01 in Rain Light Rain
12:57 AM 42.8 °F 32.5 °F 41.0 °F 93% 29.53 in 10.0 mi NW 28.8 mph 39.1 mph N/A Rain Light Rain
1:15 AM 42.8 °F 33.3 °F 41.0 °F 93% 29.54 in 10.0 mi NW 24.2 mph 32.2 mph N/A   Light Drizzle
1:35 AM 42.8 °F 32.9 °F 41.0 °F 93% 29.55 in 10.0 mi NW 26.5 mph 39.1 mph N/A   Light Drizzle
1:55 AM 42.8 °F 33.5 °F 41.0 °F 93% 29.55 in 10.0 mi NW 23.0 mph 33.4 mph N/A   Light Drizzle
1:56 AM 42.8 °F 33.3 °F 41.0 °F 93% 29.55 in 10.0 mi NW 24.2 mph 33.4 mph N/A   Light Drizzle
2:19 AM 42.8 °F 33.3 °F 39.2 °F 87% 29.55 in 10.0 mi NW 24.2 mph 36.8 mph N/A   Overcast
2:36 AM 42.8 °F 33.3 °F 39.2 °F 87% 29.56 in 10.0 mi NW 24.2 mph 38.0 mph N/A   Overcast
2:56 AM 42.8 °F 33.5 °F 39.2 °F 87% 29.57 in 10.0 mi NW 23.0 mph 33.4 mph N/A   Overcast
3:15 AM 42.8 °F 33.8 °F 39.2 °F 87% 29.56 in 10.0 mi NW 21.9 mph 34.5 mph N/A   Overcast
3:35 AM 42.8 °F 33.8 °F 39.2 °F 87% 29.57 in 10.0 mi NW 21.9 mph 33.4 mph N/A   Overcast
3:39 AM 42.8 °F 33.3 °F 39.2 °F 87% 29.57 in 10.0 mi NW 24.2 mph 33.4 mph N/A   Overcast
3:58 AM 42.8 °F 34.0 °F 39.2 °F 87% 29.57 in 10.0 mi NW 20.7 mph 33.4 mph N/A   Overcast
4:15 AM 42.8 °F 33.3 °F 37.4 °F 81% 29.57 in 10.0 mi NW 24.2 mph 34.5 mph N/A   Overcast
4:35 AM 42.8 °F 33.5 °F 37.4 °F 81% 29.58 in 10.0 mi NW 23.0 mph 33.4 mph N/A   Overcast
4:36 AM 42.8 °F 33.8 °F 37.4 °F 81% 29.58 in 10.0 mi NW 21.9 mph 33.4 mph N/A   Overcast
4:55 AM 42.8 °F 33.1 °F 37.4 °F 81% 29.59 in 10.0 mi NW 25.3 mph 39.1 mph N/A   Overcast
5:18 AM 41.0 °F 30.5 °F 37.4 °F 87% 29.59 in 10.0 mi NW 26.5 mph 42.6 mph N/A   Overcast
5:36 AM 41.0 °F 30.2 °F 37.4 °F 87% 29.60 in 10.0 mi NW 27.6 mph 35.7 mph N/A   Overcast
5:55 AM 41.0 °F 31.1 °F 35.6 °F 81% 29.60 in 10.0 mi NW 23.0 mph 34.5 mph N/A   Overcast
6:15 AM 41.0 °F 31.4 °F 37.4 °F 87% 29.61 in 10.0 mi NW 21.9 mph 29.9 mph N/A   Overcast
6:16 AM 41.0 °F 31.1 °F 37.4 °F 87% 29.61 in 10.0 mi WNW 23.0 mph 29.9 mph N/A   Overcast
6:35 AM 41.0 °F 30.9 °F 35.6 °F 81% 29.61 in 10.0 mi WNW 24.2 mph 35.7 mph N/A   Overcast
6:40 AM 41.0 °F 31.6 °F 35.6 °F 81% 29.62 in 10.0 mi WNW 20.7 mph 36.8 mph N/A   Overcast
6:57 AM 41.0 °F 31.4 °F 35.6 °F 81% 29.63 in 10.0 mi WNW 21.9 mph 29.9 mph N/A   Overcast
7:15 AM 41.0 °F 31.1 °F 35.6 °F 81% 29.63 in 10.0 mi WNW 23.0 mph 32.2 mph N/A   Overcast
7:35 AM 39.2 °F 29.0 °F 35.6 °F 87% 29.64 in 10.0 mi NW 21.9 mph 31.1 mph N/A   Overcast
7:36 AM 39.2 °F 29.8 °F 35.6 °F 87% 29.64 in 10.0 mi WNW 18.4 mph 31.1 mph N/A   Overcast
7:55 AM 41.0 °F 30.9 °F 33.8 °F 76% 29.64 in 10.0 mi WNW 24.2 mph 28.8 mph N/A   Overcast
7:56 AM 41.0 °F 30.9 °F 33.8 °F 76% 29.64 in 10.0 mi NW 24.2 mph 28.8 mph N/A   Overcast
8:18 AM 39.2 °F 29.8 °F 32.0 °F 75% 29.64 in 10.0 mi WNW 18.4 mph 24.2 mph N/A   Overcast
8:37 AM 39.2 °F 29.0 °F 32.0 °F 75% 29.65 in 10.0 mi WNW 21.9 mph 27.6 mph N/A   Overcast
8:55 AM 39.2 °F 28.7 °F 30.2 °F 70% 29.65 in 10.0 mi WNW 23.0 mph 27.6 mph N/A   Mostly Cloudy
9:15 AM 41.0 °F 31.6 °F 30.2 °F 65% 29.66 in 10.0 mi WNW 20.7 mph 28.8 mph N/A   Mostly Cloudy
9:16 AM 41.0 °F 30.9 °F 30.2 °F 65% 29.66 in 10.0 mi WNW 24.2 mph 28.8 mph N/A   Mostly Cloudy
9:35 AM 41.0 °F 31.4 °F 30.2 °F 65% 29.67 in 10.0 mi WNW 21.9 mph 31.1 mph N/A   Overcast
9:57 AM 41.0 °F 31.4 °F 30.2 °F 65% 29.67 in 10.0 mi WNW 21.9 mph 29.9 mph N/A   Overcast
10:15 AM 42.8 °F 34.8 °F 30.2 °F 61% 29.67 in 10.0 mi WNW 17.3 mph 35.7 mph N/A   Mostly Cloudy
10:35 AM 44.6 °F 35.1 °F 30.2 °F 57% 29.67 in 10.0 mi NW 27.6 mph 35.7 mph N/A   Scattered Clouds
10:55 AM 44.6 °F 35.5 °F 30.2 °F 57% 29.68 in 10.0 mi WNW 25.3 mph 39.1 mph N/A   Clear
10:56 AM 44.6 °F 35.9 °F 30.2 °F 57% 29.68 in 10.0 mi NW 23.0 mph 39.1 mph N/A   Clear
11:19 AM 46.4 °F 38.3 °F 30.2 °F 53% 29.68 in 10.0 mi NW 23.0 mph 35.7 mph N/A   Clear
11:36 AM 46.4 °F 37.7 °F 28.4 °F 50% 29.68 in 10.0 mi WNW 26.5 mph 40.3 mph N/A   Clear
11:56 AM 48.2 °F - 30.2 °F 50% 29.68 in 10.0 mi NW 26.5 mph 39.1 mph N/A   Clear
12:15 PM 48.2 °F - 28.4 °F 46% 29.68 in 10.0 mi NW 27.6 mph 38.0 mph N/A   Clear
12:35 PM 50.0 °F - 28.4 °F 43% 29.68 in 10.0 mi NW 28.8 mph 38.0 mph N/A   Clear
12:39 PM 50.0 °F - 28.4 °F 43% 29.68 in 10.0 mi NW 35.7 mph 44.9 mph N/A   Clear
12:57 PM 50.0 °F - 28.4 °F 43% 29.68 in 10.0 mi NW 28.8 mph 42.6 mph N/A   Clear
1:16 PM 50.0 °F - 28.4 °F 43% 29.68 in 10.0 mi NW 31.1 mph 40.3 mph N/A   Clear
1:35 PM 50.0 °F - 28.4 °F 43% 29.68 in 10.0 mi WNW 31.1 mph 43.7 mph N/A   Clear
1:55 PM 50.0 °F - 26.6 °F 40% 29.69 in 10.0 mi WNW 28.8 mph 42.6 mph N/A   Clear
1:56 PM 50.0 °F - 26.6 °F 40% 29.69 in 10.0 mi WNW 25.3 mph 42.6 mph N/A   Clear
2:18 PM 50.0 °F - 28.4 °F 43% 29.69 in 10.0 mi WNW 27.6 mph 46.0 mph N/A   Clear
2:36 PM 51.8 °F - 28.4 °F 41% 29.69 in 10.0 mi WNW 29.9 mph 39.1 mph N/A   Clear
2:55 PM 50.0 °F - 26.6 °F 40% 29.69 in 10.0 mi NW 27.6 mph 41.4 mph N/A   Clear
3:15 PM 51.8 °F - 28.4 °F 41% 29.69 in 10.0 mi WNW 26.5 mph 38.0 mph N/A   Clear
3:16 PM 51.8 °F - 28.4 °F 41% 29.69 in 10.0 mi WNW 31.1 mph 38.0 mph N/A   Clear
3:35 PM 51.8 °F - 28.4 °F 41% 29.69 in 10.0 mi WNW 28.8 mph 41.4 mph N/A   Clear
3:39 PM 51.8 °F - 28.4 °F 41% 29.69 in 10.0 mi WNW 23.0 mph 41.4 mph N/A   Clear
3:58 PM 50.0 °F - 28.4 °F 43% 29.70 in 10.0 mi WNW 28.8 mph 35.7 mph N/A   Clear
4:15 PM 50.0 °F - 28.4 °F 43% 29.71 in 10.0 mi WNW 31.1 mph 38.0 mph N/A   Clear
4:35 PM 50.0 °F - 30.2 °F 47% 29.72 in 10.0 mi WNW 23.0 mph 28.8 mph N/A   Clear
4:36 PM 50.0 °F - 30.2 °F 47% 29.72 in 10.0 mi WNW 24.2 mph 28.8 mph N/A   Clear
4:55 PM 48.2 °F - 28.4 °F 46% 29.72 in 10.0 mi WNW 20.7 mph 35.7 mph N/A   Clear
4:56 PM 48.2 °F - 28.4 °F 46% 29.72 in 10.0 mi WNW 20.7 mph 35.7 mph N/A   Clear
5:18 PM 48.2 °F - 30.2 °F 50% 29.73 in 10.0 mi WNW 16.1 mph 25.3 mph N/A   Clear
5:37 PM 48.2 °F - 30.2 °F 50% 29.73 in 10.0 mi WNW 19.6 mph 25.3 mph N/A   Clear
5:56 PM 48.2 °F - 30.2 °F 50% 29.74 in 10.0 mi WNW 17.3 mph 24.2 mph N/A   Clear
6:15 PM 46.4 °F 40.7 °F 30.2 °F 53% 29.74 in 10.0 mi WNW 12.7 mph 18.4 mph N/A   Clear
6:16 PM 46.4 °F 40.7 °F 30.2 °F 53% 29.74 in 10.0 mi WNW 12.7 mph 18.4 mph N/A   Clear
6:35 PM 44.6 °F 37.4 °F 30.2 °F 57% 29.74 in 10.0 mi WNW 16.1 mph 19.6 mph N/A   Clear
6:57 PM 44.6 °F 37.8 °F 30.2 °F 57% 29.75 in 10.0 mi WNW 15.0 mph 19.6 mph N/A   Clear
7:15 PM 42.8 °F 37.0 °F 30.2 °F 61% 29.76 in 10.0 mi WNW 10.4 mph - N/A   Clear
7:35 PM 42.8 °F 37.0 °F 30.2 °F 61% 29.76 in 10.0 mi WNW 10.4 mph - N/A   Clear
7:56 PM 42.8 °F 37.0 °F 32.0 °F 66% 29.77 in 10.0 mi WNW 10.4 mph - N/A   Clear
8:18 PM 41.0 °F 35.8 °F 32.0 °F 70% 29.77 in 10.0 mi WNW 8.1 mph - N/A   Clear
8:37 PM 39.2 °F 35.0 °F 30.2 °F 70% 29.77 in 10.0 mi WNW 5.8 mph - N/A   Clear
8:56 PM 37.4 °F 32.8 °F 30.2 °F 75% 29.78 in 10.0 mi West 5.8 mph - N/A   Clear
9:15 PM 35.6 °F 30.7 °F 30.2 °F 81% 29.78 in 10.0 mi West 5.8 mph - N/A   Clear
9:35 PM 35.6 °F 30.7 °F 30.2 °F 81% 29.78 in 10.0 mi West 5.8 mph - N/A   Clear
9:39 PM 35.6 °F 30.7 °F 30.2 °F 81% 29.78 in 10.0 mi West 5.8 mph - N/A   Clear
9:57 PM 35.6 °F 30.7 °F 30.2 °F 81% 29.78 in 10.0 mi West 5.8 mph - N/A   Clear
10:16 PM 35.6 °F 30.7 °F 30.2 °F 81% 29.78 in 10.0 mi WNW 5.8 mph - N/A   Clear
10:35 PM 35.6 °F 31.7 °F 30.2 °F 81% 29.78 in 10.0 mi WNW 4.6 mph - N/A   Clear
10:36 PM 35.6 °F 31.7 °F 30.2 °F 81% 29.78 in 10.0 mi WNW 4.6 mph - N/A   Clear
10:55 PM 33.8 °F 29.6 °F 30.2 °F 87% 29.77 in 10.0 mi West 4.6 mph - N/A   Clear
10:56 PM 33.8 °F 29.6 °F 30.2 °F 87% 29.77 in 10.0 mi West 4.6 mph - N/A   Clear
11:19 PM 35.6 °F 30.7 °F 30.2 °F 81% 29.77 in 10.0 mi West 5.8 mph - N/A   Clear
11:36 PM 33.8 °F 27.7 °F 30.2 °F 87% 29.77 in 10.0 mi West 6.9 mph - N/A   Clear
11:55 PM 32.0 °F 25.6 °F 28.4 °F 87% 29.77 in 10.0 mi West 6.9 mph - N/A   Clear
11:56 PM 32.0 °F 25.6 °F 28.4 °F 87% 29.77 in 10.0 mi West 6.9 mph - N/A   Clear